O'Neill, NE

3:34 PM CST on December 14, 2017 (GMT -0600)
The O'Neill Municipal-Baker

Weather History for KONL - February, 2015

Change the Weather History Date:

Friday, February 6, 2015

  Actual Average Record
Temperature  
Mean Temperature 44 °F -  
Max Temperature 58 °F 31 °F 64 °F (1965)
Min Temperature 30 °F 9 °F -16 °F (1982)
Degree Days  
Heating Degree Days 21    
Moisture  
Dew Point 33 °F    
Average Humidity 71    
Maximum Humidity 90    
Minimum Humidity 43    
Precipitation  
Precipitation 0.00 in - - ()
Sea Level Pressure  
Sea Level Pressure 29.84 in    
Wind  
Wind Speed 7 mph (SW)    
Max Wind Speed 10 mph    
Max Gust Speed -    
Visibility 10 miles    
Events      
Averages and records for this station are not official NWS values.
T = Trace of Precipitation, MM = Missing Value Source: NWS Daily Summary

Daily Weather History Graph

Daily Weather History Graph

Search for Another Location

Airport or City:

Trip Planner

Search our weather history database for the weather conditions in past years. The results will help you decide how hot, cold, wet, or windy it might be!

Date:

Astronomy

Feb. 06, 2015 Rise Set
Actual Time 7:43 AM CST 5:54 PM CST
Civil Twilight 7:13 AM CST 6:24 PM CST
Nautical Twilight 6:40 AM CST 6:57 PM CST
Astronomical Twilight 6:07 AM CST 7:30 PM CST
Moon 8:49 PM CST (2/6) 8:46 AM CST (2/6)
Length of Visible Light 11h 10m
Length of Day
10h 11m
Waning Gibbous, 93% of the Moon is Illuminated
Feb 6
Waning Gibbous
Feb 11
Last Quarter
Feb 18
New
Feb 25
First Quarter
Mar 5
Full

Hourly Weather History & Observations

Time (CST) Temp. Windchill Dew Point Humidity Pressure Visibility Wind Dir Wind Speed Gust Speed Precip Events Conditions
12:15 AM 32.0 °F 24.8 °F 28.4 °F 87% 29.91 in 10.0 mi South 8.1 mph - N/A   Clear
12:35 AM 32.2 °F 25.0 °F 28.4 °F 86% 29.90 in 10.0 mi South 8.1 mph - N/A   Clear
12:55 AM 32.4 °F 24.6 °F 28.4 °F 85% 29.89 in 10.0 mi South 9.2 mph - N/A   Clear
1:15 AM 32.2 °F 24.4 °F 28.4 °F 86% 29.88 in 10.0 mi South 9.2 mph - N/A   Clear
1:35 AM 32.2 °F 24.4 °F 28.4 °F 86% 29.87 in 10.0 mi South 9.2 mph - N/A   Clear
1:55 AM 32.0 °F 26.4 °F 28.4 °F 87% 29.87 in 10.0 mi SSW 5.8 mph - N/A   Clear
2:15 AM 31.6 °F 24.4 °F 28.4 °F 88% 29.87 in 10.0 mi SSW 8.1 mph - N/A   Clear
2:35 AM 31.8 °F 23.9 °F 28.2 °F 87% 29.85 in 10.0 mi SSW 9.2 mph - N/A   Clear
2:55 AM 31.8 °F 23.9 °F 28.2 °F 87% 29.85 in 10.0 mi SSW 9.2 mph - N/A   Clear
3:15 AM 30.4 °F 22.9 °F 27.7 °F 90% 29.84 in 10.0 mi SSW 8.1 mph - N/A   Clear
3:35 AM 32.2 °F 25.0 °F 29.1 °F 88% 29.83 in 10.0 mi SSW 8.1 mph - N/A   Clear
3:55 AM 33.1 °F 26.1 °F 29.3 °F 86% 29.83 in 10.0 mi SSW 8.1 mph - N/A   Clear
4:15 AM 32.0 °F 26.4 °F 28.9 °F 88% 29.83 in 10.0 mi SSW 5.8 mph - N/A   Clear
4:35 AM 32.5 °F 27.1 °F 29.1 °F 87% 29.83 in 10.0 mi SW 5.8 mph - N/A   Clear
4:55 AM 32.4 °F 26.9 °F 28.9 °F 87% 29.83 in 10.0 mi SW 5.8 mph - N/A   Clear
5:15 AM 33.8 °F 30.8 °F 29.7 °F 85% 29.84 in 10.0 mi WSW 3.5 mph - N/A   Clear
5:35 AM 34.3 °F 28.4 °F 29.8 °F 84% 29.83 in 10.0 mi SW 6.9 mph - N/A   Clear
5:55 AM 34.2 °F 29.0 °F 29.7 °F 84% 29.84 in 10.0 mi WSW 5.8 mph - N/A   Clear
6:15 AM 37.9 °F 32.7 °F 31.1 °F 76% 29.84 in 10.0 mi WSW 6.9 mph - N/A   Clear
6:35 AM 37.9 °F 31.5 °F 31.1 °F 76% 29.84 in 10.0 mi WSW 9.2 mph - N/A   Clear
6:55 AM 37.4 °F 30.8 °F 31.1 °F 78% 29.85 in 10.0 mi WSW 9.2 mph - N/A   Clear
7:15 AM 38.3 °F 31.4 °F 31.1 °F 75% 29.85 in 10.0 mi West 10.4 mph - N/A   Clear
7:35 AM 37.4 °F 31.4 °F 31.1 °F 78% 29.86 in 10.0 mi West 8.1 mph - N/A   Clear
7:55 AM 36.0 °F 30.3 °F 30.6 °F 81% 29.87 in 10.0 mi West 6.9 mph - N/A   Clear
8:15 AM 36.9 °F 30.1 °F 30.9 °F 79% 29.87 in 10.0 mi West 9.2 mph - N/A   Clear
8:35 AM 37.4 °F 32.1 °F 31.1 °F 78% 29.88 in 10.0 mi West 6.9 mph - N/A   Clear
8:55 AM 38.3 °F 33.9 °F 31.1 °F 75% 29.88 in 10.0 mi West 5.8 mph - N/A   Clear
9:15 AM 39.2 °F 35.9 °F 31.3 °F 73% 29.89 in 10.0 mi West 4.6 mph - N/A   Clear
9:35 AM 40.8 °F 37.8 °F 32.0 °F 71% 29.89 in 10.0 mi West 4.6 mph - N/A   Clear
9:55 AM 43.2 °F 39.7 °F 32.2 °F 65% 29.89 in 10.0 mi WSW 5.8 mph - N/A   Clear
10:15 AM 44.6 °F 40.7 °F 32.0 °F 61% 29.89 in 10.0 mi West 6.9 mph - N/A   Clear
10:35 AM 45.0 °F 41.2 °F 32.9 °F 63% 29.89 in 10.0 mi WNW 6.9 mph - N/A   Clear
10:55 AM 46.9 °F - 33.4 °F 59% 29.90 in 10.0 mi NW 5.8 mph - N/A   Clear
11:15 AM 48.2 °F - 34.0 °F 58% 29.90 in 10.0 mi West 4.6 mph - N/A   Clear
11:35 AM 49.3 °F - 34.3 °F 56% 29.90 in 10.0 mi West 5.8 mph - N/A   Clear
11:55 AM 50.4 °F - 34.3 °F 54% 29.90 in 10.0 mi West 6.9 mph - N/A   Clear
12:15 PM 51.8 °F - 35.1 °F 53% 29.90 in 10.0 mi WNW 4.6 mph - N/A   Clear
12:35 PM 52.0 °F - 35.4 °F 53% 29.90 in 10.0 mi West 6.9 mph - N/A   Clear
12:55 PM 53.6 °F - 35.2 °F 50% 29.89 in 10.0 mi WNW 5.8 mph - N/A   Clear
1:15 PM 54.3 °F - 35.1 °F 48% 29.88 in 10.0 mi West 4.6 mph - N/A   Clear
1:35 PM 54.3 °F - 34.9 °F 48% 29.88 in 10.0 mi West 4.6 mph - N/A   Clear
1:55 PM 55.8 °F - 35.4 °F 46% 29.86 in 10.0 mi Calm Calm - N/A   Clear
2:15 PM 57.0 °F - 35.2 °F 44% 29.85 in 10.0 mi Calm Calm - N/A   Clear
2:35 PM 58.1 °F - 35.4 °F 43% 29.85 in 10.0 mi SW 4.6 mph - N/A   Clear
2:55 PM 57.9 °F - 35.6 °F 43% 29.85 in 10.0 mi Calm Calm - N/A   Clear
3:15 PM 58.5 °F - 36.0 °F 43% 29.85 in 10.0 mi SW 5.8 mph - N/A   Clear
3:35 PM 56.3 °F - 36.9 °F 48% 29.84 in 10.0 mi SW 4.6 mph - N/A   Clear
3:55 PM 58.5 °F - 37.2 °F 45% 29.83 in 10.0 mi South 4.6 mph - N/A   Clear
4:15 PM 56.1 °F - 36.5 °F 48% 29.83 in 10.0 mi SSW 5.8 mph - N/A   Clear
4:35 PM 52.5 °F - 36.9 °F 55% 29.82 in 10.0 mi South 5.8 mph - N/A   Clear
4:55 PM 50.9 °F - 37.4 °F 60% 29.82 in 10.0 mi South 5.8 mph - N/A   Clear
5:15 PM 48.7 °F - 36.7 °F 63% 29.81 in 10.0 mi South 8.1 mph - N/A   Clear
5:35 PM 48.6 °F - 36.7 °F 64% 29.81 in 10.0 mi South 8.1 mph - N/A   Clear
5:55 PM 46.9 °F - 37.8 °F 70% 29.81 in 10.0 mi South 6.9 mph - N/A   Clear
6:15 PM 45.3 °F 42.3 °F 37.8 °F 75% 29.81 in 10.0 mi South 5.8 mph - N/A   Clear
6:35 PM 46.2 °F 43.3 °F 37.9 °F 73% 29.81 in 10.0 mi South 5.8 mph - N/A   Clear
6:55 PM 44.1 °F 41.5 °F 36.9 °F 76% 29.81 in 10.0 mi South 4.6 mph - N/A   Clear
7:15 PM 43.0 °F 37.7 °F 36.1 °F 77% 29.80 in 10.0 mi South 9.2 mph - N/A   Clear
7:35 PM 41.9 °F 38.2 °F 35.2 °F 77% 29.79 in 10.0 mi South 5.8 mph - N/A   Clear
7:55 PM 40.5 °F 35.1 °F 34.7 °F 80% 29.78 in 10.0 mi South 8.1 mph - N/A   Clear
8:15 PM 39.0 °F 33.4 °F 34.0 °F 82% 29.78 in 10.0 mi South 8.1 mph - N/A   Clear
8:35 PM 41.0 °F 35.8 °F 34.3 °F 77% 29.77 in 10.0 mi South 8.1 mph - N/A   Clear
8:55 PM 39.4 °F 33.8 °F 33.4 °F 79% 29.76 in 10.0 mi South 8.1 mph - N/A   Clear
9:15 PM 40.1 °F 34.7 °F 33.1 °F 76% 29.76 in 10.0 mi SW 8.1 mph - N/A   Clear
9:35 PM 40.3 °F 36.3 °F 33.3 °F 76% 29.75 in 10.0 mi SSW 5.8 mph - N/A   Clear
9:55 PM 39.4 °F 33.2 °F 33.3 °F 79% 29.75 in 10.0 mi SSW 9.2 mph - N/A   Clear
10:15 PM 40.1 °F 34.1 °F 33.1 °F 76% 29.74 in 10.0 mi SW 9.2 mph - N/A   Clear
10:35 PM 40.1 °F 34.1 °F 32.7 °F 75% 29.73 in 10.0 mi SSW 9.2 mph - N/A   Clear
10:55 PM 38.3 °F 31.9 °F 32.2 °F 79% 29.73 in 10.0 mi SW 9.2 mph - N/A   Clear
11:15 PM 40.6 °F 34.3 °F 32.0 °F 71% 29.72 in 10.0 mi SSW 10.4 mph - N/A   Clear
11:35 PM 41.7 °F 35.6 °F 32.2 °F 69% 29.71 in 10.0 mi SSW 10.4 mph - N/A   Clear
11:55 PM 41.2 °F 36.0 °F 32.2 °F 70% 29.71 in 10.0 mi SW 8.1 mph - N/A   Clear